| time (UTC) | temp F | wind direction | speed MPH | gust MPH | rain 1hr in | rain 24hr in | rain mn in | humidity % | barometer mb |
| 20260831030554 | 75 | 301 | 0.0 | 1.0 | 0.00 | 0.10 | 0.10 | 92 | 1015.8 |
| 20260831030052 | 75 | 301 | 0.0 | 1.0 | 0.00 | 0.10 | 0.10 | 92 | 1015.7 |
| 20260831025048 | 75 | 302 | 0.0 | 0.0 | 0.00 | 0.10 | 0.10 | 92 | 1015.8 |
| 20260831024042 | 76 | 302 | 0.0 | 0.0 | 0.00 | 0.10 | 0.10 | 92 | 1016.0 |
| 20260831023540 | 75 | 302 | 0.0 | 0.0 | 0.00 | 0.10 | 0.10 | 91 | 1016.0 |
| 20260831023039 | 76 | 302 | 0.0 | 0.0 | 0.00 | 0.10 | 0.10 | 91 | 1016.1 |
| 20260831022536 | 76 | 302 | 0.0 | 0.0 | 0.00 | 0.10 | 0.10 | 90 | 1016.1 |
| 20260831022036 | 76 | 302 | 0.0 | 0.0 | 0.00 | 0.10 | 0.10 | 90 | 1016.0 |
| 20260831021529 | 76 | 302 | 0.0 | 0.0 | 0.00 | 0.10 | 0.10 | 90 | 1016.0 |
| 20260831021028 | 76 | 302 | 0.0 | 0.0 | 0.00 | 0.10 | 0.10 | 90 | 1016.0 |
| 20260831020526 | 76 | 302 | 0.0 | 0.0 | 0.00 | 0.10 | 0.10 | 90 | 1016.1 |
| 20260831020023 | 76 | 302 | 0.0 | 0.0 | 0.00 | 0.10 | 0.10 | 89 | 1016.0 |
| 20260831015524 | 76 | 302 | 0.0 | 1.0 | 0.01 | 0.10 | 0.10 | 89 | 1016.0 |
| 20260831014519 | 75 | 302 | 0.0 | 1.0 | 0.01 | 0.10 | 0.10 | 90 | 1016.1 |
| 20260831014020 | 75 | 288 | 0.0 | 1.0 | 0.02 | 0.10 | 0.10 | 90 | 1016.0 |
| 20260831013519 | 75 | 280 | 0.0 | 0.0 | 0.03 | 0.10 | 0.10 | 91 | 1016.0 |
| 20260831013018 | 75 | 319 | 0.0 | 2.0 | 0.04 | 0.10 | 0.10 | 91 | 1016.0 |
| 20260831012519 | 75 | 347 | 0.0 | 2.0 | 0.06 | 0.10 | 0.10 | 91 | 1015.9 |
| 20260831012015 | 74 | 263 | 0.0 | 2.0 | 0.07 | 0.10 | 0.10 | 91 | 1016.0 |
| 20260831011515 | 74 | 11 | 0.0 | 1.0 | 0.08 | 0.10 | 0.10 | 90 | 1015.7 |
| 20260831011016 | 74 | 5 | 0.0 | 2.0 | 0.09 | 0.10 | 0.10 | 91 | 1015.9 |
| 20260831010514 | 74 | 239 | 0.0 | 4.0 | 0.10 | 0.10 | 0.10 | 90 | 1015.6 |
| 20260831004507 | 74 | 225 | 2.0 | 7.0 | 0.09 | 0.09 | 0.09 | 88 | 1016.1 |
| 20260831003506 | 74 | 245 | 4.0 | 13.0 | 0.07 | 0.07 | 0.07 | 88 | 1016.3 |
| 20260831003006 | 74 | 338 | 5.0 | 15.0 | 0.06 | 0.06 | 0.06 | 87 | 1016.4 |
| 20260831002506 | 75 | 292 | 5.0 | 15.0 | 0.04 | 0.04 | 0.04 | 87 | 1016.4 |
| 20260831002000 | 76 | 304 | 6.0 | 18.0 | 0.03 | 0.03 | 0.03 | 87 | 1016.5 |
| 20260831001459 | 77 | 338 | 6.0 | 18.0 | 0.02 | 0.02 | 0.02 | 84 | 1016.4 |
| 20260831001001 | 80 | 246 | 5.0 | 16.0 | 0.01 | 0.01 | 0.01 | 79 | 1016.5 |
| 20260830235501 | 85 | 259 | 2.0 | 7.0 | 0.00 | 0.00 | 0.00 | 69 | 1015.7 |
| 20260830234956 | 85 | 212 | 2.0 | 7.0 | 0.00 | 0.00 | 0.00 | 68 | 1015.6 |
| 20260830233954 | 85 | 215 | 3.0 | 8.0 | 0.00 | 0.00 | 0.00 | 67 | 1015.3 |
| 20260830233454 | 85 | 233 | 2.0 | 8.0 | 0.00 | 0.00 | 0.00 | 67 | 1015.2 |
| 20260830232953 | 85 | 193 | 2.0 | 6.0 | 0.00 | 0.00 | 0.00 | 67 | 1015.2 |
| 20260830232454 | 85 | 222 | 3.0 | 8.0 | 0.00 | 0.00 | 0.00 | 67 | 1015.2 |
| 20260830231951 | 85 | 163 | 3.0 | 8.0 | 0.00 | 0.00 | 0.00 | 67 | 1015.1 |
| 20260830231452 | 85 | 196 | 4.0 | 12.0 | 0.00 | 0.00 | 0.00 | 66 | 1015.2 |
| 20260830230951 | 85 | 210 | 5.0 | 12.0 | 0.00 | 0.00 | 0.00 | 66 | 1015.2 |
| 20260830225451 | 85 | 203 | 3.0 | 8.0 | 0.00 | 0.00 | 0.00 | 66 | 1015.3 |
| 20260830224951 | 86 | 179 | 3.0 | 9.0 | 0.00 | 0.00 | 0.00 | 65 | 1015.4 |
| 20260830224448 | 86 | 212 | 3.0 | 9.0 | 0.00 | 0.00 | 0.00 | 64 | 1015.4 |
| 20260830223948 | 86 | 219 | 3.0 | 10.0 | 0.00 | 0.00 | 0.00 | 63 | 1015.4 |
| 20260830223446 | 87 | 271 | 4.0 | 10.0 | 0.00 | 0.00 | 0.00 | 63 | 1015.4 |
| 20260830222946 | 87 | 211 | 4.0 | 11.0 | 0.00 | 0.00 | 0.00 | 62 | 1015.3 |
| 20260830221948 | 88 | 248 | 4.0 | 12.0 | 0.00 | 0.00 | 0.00 | 60 | 1015.1 |
| 20260830221442 | 88 | 163 | 4.0 | 12.0 | 0.00 | 0.00 | 0.00 | 60 | 1015.1 |
| 20260830220941 | 88 | 238 | 4.0 | 11.0 | 0.00 | 0.00 | 0.00 | 60 | 1015.0 |
| 20260830220440 | 88 | 239 | 4.0 | 11.0 | 0.00 | 0.00 | 0.00 | 60 | 1014.8 |
| 20260830215942 | 88 | 187 | 4.0 | 11.0 | 0.00 | 0.00 | 0.00 | 60 | 1014.8 |
| 20260830215439 | 88 | 245 | 5.0 | 13.0 | 0.00 | 0.00 | 0.00 | 60 | 1014.8 |
| 20260830214940 | 88 | 224 | 5.0 | 13.0 | 0.00 | 0.00 | 0.00 | 60 | 1014.8 |
| 20260830213934 | 88 | 180 | 4.0 | 10.0 | 0.00 | 0.00 | 0.00 | 61 | 1014.9 |
| 20260830213434 | 87 | 218 | 4.0 | 9.0 | 0.00 | 0.00 | 0.00 | 61 | 1014.9 |
| 20260830212934 | 87 | 183 | 3.0 | 9.0 | 0.00 | 0.00 | 0.00 | 62 | 1015.0 |
| 20260830212434 | 87 | 275 | 3.0 | 7.0 | 0.00 | 0.00 | 0.00 | 62 | 1015.0 |
| 20260830211933 | 87 | 260 | 2.0 | 7.0 | 0.00 | 0.00 | 0.00 | 61 | 1014.9 |
| 20260830210930 | 87 | 203 | 4.0 | 8.0 | 0.00 | 0.00 | 0.00 | 61 | 1014.9 |
| 20260830205428 | 88 | 235 | 5.0 | 10.0 | 0.00 | 0.00 | 0.00 | 59 | 1014.9 |
| 20260830204929 | 89 | 187 | 4.0 | 10.0 | 0.00 | 0.00 | 0.00 | 57 | 1015.0 |
| 20260830204431 | 89 | 236 | 4.0 | 9.0 | 0.00 | 0.00 | 0.00 | 58 | 1015.1 |
| 20260830203924 | 89 | 228 | 4.0 | 10.0 | 0.00 | 0.00 | 0.00 | 57 | 1015.1 |
| 20260830203424 | 90 | 212 | 3.0 | 10.0 | 0.00 | 0.00 | 0.00 | 57 | 1015.1 |
| 20260830202923 | 90 | 242 | 3.0 | 8.0 | 0.00 | 0.00 | 0.00 | 57 | 1015.2 |
| 20260830202423 | 89 | 212 | 4.0 | 8.0 | 0.00 | 0.00 | 0.00 | 58 | 1015.2 |
| 20260830201924 | 90 | 107 | 4.0 | 10.0 | 0.00 | 0.00 | 0.00 | 57 | 1015.2 |
| 20260830201424 | 90 | 180 | 4.0 | 10.0 | 0.00 | 0.00 | 0.00 | 57 | 1015.2 |
| 20260830200923 | 90 | 190 | 5.0 | 13.0 | 0.00 | 0.00 | 0.00 | 57 | 1015.3 |
| 20260830200416 | 90 | 200 | 5.0 | 13.0 | 0.00 | 0.00 | 0.00 | 57 | 1015.2 |
| 20260830195917 | 90 | 224 | 3.0 | 12.0 | 0.00 | 0.00 | 0.00 | 57 | 1015.2 |
| 20260830195418 | 90 | 198 | 3.0 | 9.0 | 0.00 | 0.00 | 0.00 | 58 | 1015.1 |
| 20260830194917 | 90 | 231 | 4.0 | 12.0 | 0.00 | 0.00 | 0.00 | 58 | 1015.2 |
| 20260830194417 | 89 | 181 | 4.0 | 12.0 | 0.00 | 0.00 | 0.00 | 58 | 1015.3 |
| 20260830193916 | 89 | 239 | 4.0 | 9.0 | 0.00 | 0.00 | 0.00 | 59 | 1015.3 |
| 20260830193418 | 89 | 225 | 4.0 | 10.0 | 0.00 | 0.00 | 0.00 | 59 | 1015.5 |
| 20260830191909 | 89 | 193 | 4.0 | 11.0 | 0.00 | 0.00 | 0.00 | 60 | 1015.7 |
| 20260830191411 | 89 | 162 | 4.0 | 9.0 | 0.00 | 0.00 | 0.00 | 59 | 1015.8 |
| 20260830190410 | 89 | 167 | 4.0 | 11.0 | 0.00 | 0.00 | 0.00 | 59 | 1016.0 |
| 20260830185910 | 89 | 145 | 4.0 | 10.0 | 0.00 | 0.00 | 0.00 | 60 | 1016.1 |
| 20260830185410 | 89 | 212 | 3.0 | 10.0 | 0.00 | 0.00 | 0.00 | 60 | 1016.3 |
| 20260830184907 | 89 | 195 | 3.0 | 9.0 | 0.00 | 0.00 | 0.00 | 60 | 1016.4 |
| 20260830184406 | 88 | 248 | 4.0 | 9.0 | 0.00 | 0.00 | 0.00 | 63 | 1016.4 |
| 20260830183906 | 87 | 205 | 4.0 | 9.0 | 0.00 | 0.00 | 0.00 | 62 | 1016.5 |
| 20260830183408 | 87 | 208 | 4.0 | 10.0 | 0.00 | 0.00 | 0.00 | 62 | 1016.7 |
| 20260830182907 | 87 | 147 | 4.0 | 10.0 | 0.00 | 0.00 | 0.00 | 64 | 1016.7 |
| 20260830182407 | 86 | 312 | 4.0 | 8.0 | 0.00 | 0.00 | 0.00 | 65 | 1016.8 |
| 20260830181407 | 85 | 181 | 4.0 | 12.0 | 0.00 | 0.00 | 0.00 | 66 | 1017.0 |
| 20260830180908 | 85 | 194 | 4.0 | 12.0 | 0.00 | 0.00 | 0.00 | 65 | 1017.2 |
| 20260830180401 | 85 | 179 | 3.0 | 11.0 | 0.00 | 0.00 | 0.00 | 65 | 1017.2 |
| 20260830175902 | 86 | 239 | 3.0 | 7.0 | 0.00 | 0.00 | 0.00 | 65 | 1017.5 |
| 20260830175402 | 86 | 215 | 3.0 | 8.0 | 0.00 | 0.00 | 0.00 | 65 | 1017.4 |
| 20260830174401 | 85 | 253 | 5.0 | 11.0 | 0.00 | 0.00 | 0.00 | 66 | 1017.5 |
| 20260830173900 | 86 | 198 | 4.0 | 11.0 | 0.00 | 0.00 | 0.00 | 64 | 1017.6 |
| 20260830173401 | 86 | 211 | 5.0 | 12.0 | 0.00 | 0.00 | 0.00 | 64 | 1017.6 |
| 20260830172901 | 86 | 172 | 6.0 | 12.0 | 0.00 | 0.00 | 0.00 | 63 | 1017.7 |
| 20260830172358 | 87 | 203 | 5.0 | 13.0 | 0.00 | 0.00 | 0.00 | 63 | 1017.7 |
| 20260830171859 | 87 | 205 | 5.0 | 12.0 | 0.00 | 0.00 | 0.00 | 62 | 1017.8 |
| 20260830170900 | 87 | 259 | 5.0 | 11.0 | 0.00 | 0.00 | 0.00 | 63 | 1017.9 |
| 20260830170359 | 87 | 165 | 6.0 | 13.0 | 0.00 | 0.00 | 0.00 | 63 | 1018.0 |
| 20260830165859 | 86 | 192 | 5.0 | 13.0 | 0.00 | 0.00 | 0.00 | 64 | 1018.0 |
| 20260830165358 | 87 | 224 | 5.0 | 10.0 | 0.00 | 0.00 | 0.00 | 63 | 1018.0 |
| 20260830164900 | 86 | 267 | 5.0 | 11.0 | 0.00 | 0.00 | 0.00 | 64 | 1018.1 |
| 20260830163857 | 85 | 176 | 6.0 | 15.0 | 0.00 | 0.00 | 0.00 | 66 | 1018.1 |
| 20260830163354 | 86 | 174 | 6.0 | 15.0 | 0.00 | 0.00 | 0.00 | 65 | 1018.2 |
| 20260830162852 | 86 | 190 | 5.0 | 12.0 | 0.00 | 0.00 | 0.00 | 64 | 1018.4 |
| 20260830161853 | 85 | 210 | 5.0 | 13.0 | 0.00 | 0.00 | 0.00 | 67 | 1018.3 |
| 20260830161353 | 84 | 280 | 6.0 | 15.0 | 0.00 | 0.00 | 0.00 | 67 | 1018.4 |
| 20260830160854 | 84 | 339 | 6.0 | 15.0 | 0.00 | 0.00 | 0.00 | 67 | 1018.6 |
| 20260830160354 | 84 | 236 | 5.0 | 11.0 | 0.00 | 0.00 | 0.00 | 69 | 1018.6 |
| 20260830155854 | 83 | 280 | 4.0 | 11.0 | 0.00 | 0.00 | 0.00 | 70 | 1018.7 |
| 20260830155353 | 83 | 211 | 5.0 | 15.0 | 0.00 | 0.00 | 0.00 | 70 | 1018.7 |
| 20260830154852 | 83 | 207 | 5.0 | 15.0 | 0.00 | 0.00 | 0.00 | 70 | 1018.7 |
| 20260830154354 | 83 | 301 | 4.0 | 10.0 | 0.00 | 0.00 | 0.00 | 73 | 1018.7 |
| 20260830153852 | 82 | 191 | 4.0 | 10.0 | 0.00 | 0.00 | 0.00 | 74 | 1018.7 |
| 20260830153351 | 81 | 196 | 4.0 | 10.0 | 0.00 | 0.00 | 0.00 | 75 | 1018.7 |
| 20260830151847 | 81 | 226 | 3.0 | 10.0 | 0.00 | 0.00 | 0.00 | 76 | 1018.7 |
| 20260830151348 | 81 | 266 | 3.0 | 8.0 | 0.00 | 0.00 | 0.00 | 76 | 1018.7 |
| 20260830150848 | 82 | 163 | 4.0 | 12.0 | 0.00 | 0.00 | 0.00 | 76 | 1018.8 |
| 20260830145840 | 81 | 194 | 5.0 | 12.0 | 0.00 | 0.00 | 0.00 | 76 | 1018.7 |
| 20260830145334 | 80 | 250 | 3.0 | 12.0 | 0.00 | 0.00 | 0.00 | 79 | 1018.6 |
| 20260830144832 | 79 | 219 | 3.0 | 10.0 | 0.00 | 0.00 | 0.00 | 81 | 1018.6 |
| 20260830144332 | 79 | 256 | 3.0 | 8.0 | 0.00 | 0.00 | 0.00 | 81 | 1018.7 |
| 20260830143830 | 78 | 210 | 5.0 | 12.0 | 0.00 | 0.00 | 0.00 | 82 | 1018.7 |
| 20260830143331 | 78 | 297 | 5.0 | 12.0 | 0.00 | 0.00 | 0.00 | 83 | 1018.7 |
| 20260830142832 | 78 | 197 | 5.0 | 12.0 | 0.00 | 0.00 | 0.00 | 83 | 1018.7 |
| 20260830142332 | 78 | 193 | 4.0 | 12.0 | 0.00 | 0.00 | 0.00 | 83 | 1018.7 |
| 20260830141330 | 77 | 179 | 4.0 | 10.0 | 0.00 | 0.00 | 0.00 | 85 | 1018.8 |
| 20260830140327 | 76 | 211 | 4.0 | 11.0 | 0.00 | 0.00 | 0.00 | 87 | 1018.8 |
| 20260830135827 | 76 | 253 | 3.0 | 8.0 | 0.00 | 0.00 | 0.00 | 88 | 1018.8 |
| 20260830135328 | 76 | 210 | 3.0 | 9.0 | 0.00 | 0.00 | 0.00 | 88 | 1018.9 |
| 20260830134826 | 76 | 250 | 4.0 | 10.0 | 0.00 | 0.00 | 0.00 | 88 | 1019.0 |
| 20260830134328 | 75 | 249 | 5.0 | 11.0 | 0.00 | 0.00 | 0.00 | 88 | 1019.1 |
| 20260830133822 | 75 | 208 | 4.0 | 11.0 | 0.00 | 0.00 | 0.00 | 88 | 1019.2 |
| 20260830133318 | 75 | 215 | 3.0 | 9.0 | 0.00 | 0.00 | 0.00 | 88 | 1019.3 |
| 20260830132816 | 75 | 210 | 3.0 | 8.0 | 0.00 | 0.00 | 0.00 | 88 | 1019.3 |
| 20260830132318 | 75 | 188 | 3.0 | 7.0 | 0.00 | 0.00 | 0.00 | 89 | 1019.2 |
| 20260830131317 | 75 | 215 | 2.0 | 7.0 | 0.00 | 0.00 | 0.00 | 90 | 1019.4 |
| 20260830130817 | 75 | 219 | 3.0 | 14.0 | 0.00 | 0.00 | 0.00 | 90 | 1019.5 |
| 20260830130317 | 75 | 166 | 4.0 | 14.0 | 0.00 | 0.00 | 0.00 | 90 | 1019.5 |
| 20260830125812 | 75 | 193 | 4.0 | 9.0 | 0.00 | 0.00 | 0.00 | 90 | 1019.5 |
| 20260830125306 | 75 | 169 | 4.0 | 9.0 | 0.00 | 0.00 | 0.00 | 90 | 1019.6 |
| 20260830124800 | 74 | 216 | 4.0 | 8.0 | 0.00 | 0.00 | 0.00 | 90 | 1019.6 |
| 20260830124301 | 74 | 186 | 4.0 | 11.0 | 0.00 | 0.00 | 0.00 | 90 | 1019.6 |
| 20260830123800 | 74 | 224 | 3.0 | 11.0 | 0.00 | 0.00 | 0.00 | 90 | 1019.5 |
| 20260830123301 | 74 | 210 | 3.0 | 11.0 | 0.00 | 0.00 | 0.00 | 90 | 1019.5 |
| 20260830122800 | 74 | 167 | 3.0 | 11.0 | 0.00 | 0.00 | 0.00 | 90 | 1019.6 |
| 20260830121757 | 74 | 257 | 2.0 | 5.0 | 0.00 | 0.00 | 0.00 | 90 | 1019.6 |
| 20260830121258 | 74 | 191 | 2.0 | 6.0 | 0.00 | 0.00 | 0.00 | 90 | 1019.6 |
| 20260830120757 | 74 | 159 | 2.0 | 9.0 | 0.00 | 0.00 | 0.00 | 90 | 1019.5 |
| 20260830120258 | 74 | 189 | 3.0 | 9.0 | 0.00 | 0.00 | 0.00 | 90 | 1019.5 |
| 20260830115252 | 74 | 204 | 4.0 | 10.0 | 0.00 | 0.00 | 0.00 | 90 | 1019.4 |
| 20260830114753 | 74 | 181 | 2.0 | 5.0 | 0.00 | 0.00 | 0.00 | 91 | 1019.5 |
| 20260830114253 | 74 | 190 | 2.0 | 7.0 | 0.00 | 0.00 | 0.00 | 91 | 1019.6 |
| 20260830113753 | 74 | 215 | 3.0 | 8.0 | 0.00 | 0.00 | 0.00 | 91 | 1019.6 |
| 20260830113253 | 74 | 190 | 3.0 | 10.0 | 0.00 | 0.00 | 0.00 | 91 | 1019.6 |
| 20260830112248 | 74 | 201 | 3.0 | 8.0 | 0.00 | 0.00 | 0.00 | 91 | 1019.5 |
| 20260830111749 | 74 | 188 | 3.0 | 8.0 | 0.00 | 0.00 | 0.00 | 91 | 1019.6 |
| 20260830111248 | 74 | 211 | 3.0 | 8.0 | 0.00 | 0.00 | 0.00 | 91 | 1019.7 |
| 20260830110748 | 74 | 214 | 3.0 | 8.0 | 0.00 | 0.00 | 0.00 | 91 | 1019.7 |
| 20260830110251 | 74 | 210 | 2.0 | 7.0 | 0.00 | 0.00 | 0.00 | 91 | 1019.8 |
| 20260830105249 | 74 | 205 | 2.0 | 9.0 | 0.00 | 0.00 | 0.00 | 91 | 1019.7 |
| 20260830104748 | 74 | 247 | 3.0 | 9.0 | 0.00 | 0.00 | 0.00 | 91 | 1019.6 |
| 20260830104249 | 74 | 217 | 3.0 | 8.0 | 0.00 | 0.00 | 0.00 | 91 | 1019.6 |
| 20260830103750 | 74 | 246 | 3.0 | 8.0 | 0.00 | 0.00 | 0.00 | 91 | 1019.6 |
| 20260830103250 | 74 | 197 | 2.0 | 5.0 | 0.00 | 0.00 | 0.00 | 91 | 1019.4 |
| 20260830102745 | 74 | 197 | 2.0 | 5.0 | 0.00 | 0.00 | 0.00 | 91 | 1019.4 |
| 20260830102245 | 74 | 235 | 1.0 | 5.0 | 0.00 | 0.00 | 0.00 | 91 | 1019.4 |
| 20260830101745 | 74 | 208 | 1.0 | 5.0 | 0.00 | 0.00 | 0.00 | 91 | 1019.4 |
| 20260830100744 | 74 | 225 | 2.0 | 7.0 | 0.00 | 0.00 | 0.00 | 91 | 1019.3 |
| 20260830095240 | 74 | 194 | 2.0 | 9.0 | 0.00 | 0.00 | 0.00 | 91 | 1019.3 |
| 20260830094742 | 74 | 215 | 3.0 | 9.0 | 0.00 | 0.00 | 0.00 | 91 | 1019.3 |
| 20260830093741 | 74 | 248 | 3.0 | 7.0 | 0.00 | 0.00 | 0.00 | 90 | 1019.4 |
| 20260830093242 | 74 | 162 | 3.0 | 10.0 | 0.00 | 0.00 | 0.00 | 90 | 1019.4 |
| 20260830092237 | 74 | 169 | 3.0 | 9.0 | 0.00 | 0.00 | 0.00 | 90 | 1019.2 |
| 20260830091736 | 74 | 160 | 3.0 | 9.0 | 0.00 | 0.00 | 0.00 | 90 | 1019.2 |
| 20260830090238 | 74 | 195 | 3.0 | 8.0 | 0.00 | 0.00 | 0.00 | 90 | 1019.1 |
| 20260830085736 | 74 | 198 | 3.0 | 8.0 | 0.00 | 0.00 | 0.00 | 90 | 1019.2 |
| 20260830085231 | 74 | 219 | 3.0 | 8.0 | 0.00 | 0.00 | 0.00 | 89 | 1019.1 |
| 20260830084729 | 74 | 143 | 3.0 | 5.0 | 0.00 | 0.00 | 0.00 | 89 | 1019.1 |
| 20260830084226 | 74 | 268 | 3.0 | 6.0 | 0.00 | 0.00 | 0.00 | 89 | 1019.2 |
| 20260830083727 | 74 | 191 | 2.0 | 6.0 | 0.00 | 0.00 | 0.00 | 89 | 1019.2 |
| 20260830083226 | 74 | 205 | 2.0 | 5.0 | 0.00 | 0.00 | 0.00 | 89 | 1019.3 |
| 20260830082719 | 74 | 179 | 3.0 | 9.0 | 0.00 | 0.00 | 0.00 | 88 | 1019.3 |
| 20260830082217 | 74 | 205 | 3.0 | 9.0 | 0.00 | 0.00 | 0.00 | 88 | 1019.3 |
| 20260830081716 | 74 | 156 | 2.0 | 6.0 | 0.00 | 0.00 | 0.00 | 87 | 1019.3 |
| 20260830081217 | 74 | 208 | 3.0 | 6.0 | 0.00 | 0.00 | 0.00 | 87 | 1019.2 |
| 20260830080215 | 74 | 277 | 2.0 | 6.0 | 0.00 | 0.00 | 0.00 | 85 | 1019.3 |
| 20260830075208 | 74 | 316 | 1.0 | 6.0 | 0.00 | 0.00 | 0.00 | 84 | 1019.3 |
| 20260830074708 | 74 | 201 | 1.0 | 3.0 | 0.00 | 0.00 | 0.00 | 83 | 1019.3 |
| 20260830074208 | 74 | 240 | 1.0 | 3.0 | 0.00 | 0.00 | 0.00 | 82 | 1019.4 |
| 20260830073208 | 74 | 200 | 0.0 | 3.0 | 0.00 | 0.00 | 0.00 | 81 | 1019.4 |
| 20260830072701 | 74 | 193 | 0.0 | 2.0 | 0.00 | 0.00 | 0.00 | 80 | 1019.4 |
| 20260830072153 | 74 | 203 | 0.0 | 2.0 | 0.00 | 0.00 | 0.00 | 80 | 1019.4 |
| 20260830071651 | 74 | 215 | 1.0 | 3.0 | 0.00 | 0.00 | 0.00 | 79 | 1019.4 |
| 20260830071152 | 74 | 204 | 1.0 | 4.0 | 0.00 | 0.00 | 0.00 | 79 | 1019.5 |
| 20260830070652 | 74 | 215 | 1.0 | 4.0 | 0.00 | 0.00 | 0.00 | 78 | 1019.4 |
| 20260830070151 | 74 | 194 | 2.0 | 5.0 | 0.00 | 0.00 | 0.00 | 78 | 1019.6 |
| 20260830065651 | 74 | 179 | 3.0 | 7.0 | 0.00 | 0.00 | 0.00 | 77 | 1019.6 |
| 20260830065150 | 74 | 195 | 2.0 | 7.0 | 0.00 | 0.00 | 0.00 | 77 | 1019.6 |
| 20260830064148 | 74 | 148 | 3.0 | 8.0 | 0.00 | 0.00 | 0.00 | 76 | 1019.6 |
| 20260830063646 | 74 | 200 | 3.0 | 8.0 | 0.00 | 0.00 | 0.00 | 76 | 1019.6 |
| 20260830063147 | 75 | 165 | 2.0 | 6.0 | 0.00 | 0.00 | 0.00 | 75 | 1019.7 |
| 20260830062646 | 75 | 188 | 2.0 | 6.0 | 0.00 | 0.00 | 0.00 | 75 | 1019.7 |
| 20260830062144 | 75 | 235 | 0.0 | 5.0 | 0.00 | 0.00 | 0.00 | 74 | 1019.7 |
| 20260830061643 | 75 | 228 | 0.0 | 0.0 | 0.00 | 0.00 | 0.00 | 74 | 1019.8 |
| 20260830061139 | 74 | 228 | 0.0 | 0.0 | 0.00 | 0.00 | 0.00 | 73 | 1019.9 |
| 20260830060637 | 74 | 212 | 0.0 | 3.0 | 0.00 | 0.00 | 0.00 | 73 | 1020.0 |
| 20260830060135 | 74 | 208 | 1.0 | 4.0 | 0.00 | 0.00 | 0.00 | 73 | 1020.1 |
| 20260830055635 | 74 | 190 | 1.0 | 4.0 | 0.00 | 0.00 | 0.00 | 72 | 1020.1 |
| 20260830055132 | 74 | 205 | 1.0 | 4.0 | 0.00 | 0.00 | 0.00 | 72 | 1020.1 |
| 20260830054131 | 74 | 210 | 1.0 | 4.0 | 0.00 | 0.00 | 0.00 | 71 | 1020.1 |
| 20260830053626 | 74 | 203 | 1.0 | 3.0 | 0.00 | 0.00 | 0.00 | 71 | 1020.1 |
| 20260830053126 | 74 | 218 | 0.0 | 3.0 | 0.00 | 0.00 | 0.00 | 71 | 1020.2 |
| 20260830052627 | 74 | 210 | 0.0 | 3.0 | 0.00 | 0.00 | 0.00 | 71 | 1020.2 |
| 20260830052126 | 74 | 217 | 0.0 | 3.0 | 0.00 | 0.00 | 0.00 | 71 | 1020.2 |
| 20260830051627 | 74 | 195 | 0.0 | 3.0 | 0.00 | 0.00 | 0.00 | 71 | 1020.1 |
| 20260830050626 | 74 | 184 | 0.0 | 1.0 | 0.00 | 0.00 | 0.00 | 71 | 1020.0 |
| 20260830045620 | 74 | 224 | 0.0 | 1.0 | 0.00 | 0.00 | 0.00 | 72 | 1019.8 |
| 20260830045118 | 74 | 217 | 0.0 | 1.0 | 0.00 | 0.00 | 0.00 | 72 | 1019.9 |
| 20260830044620 | 74 | 217 | 0.0 | 0.0 | 0.00 | 0.00 | 0.00 | 72 | 1019.9 |
| 20260830044117 | 74 | 217 | 0.0 | 0.0 | 0.00 | 0.00 | 0.00 | 72 | 1019.9 |
| 20260830043617 | 73 | 217 | 0.0 | 0.0 | 0.00 | 0.00 | 0.00 | 73 | 1019.8 |
| 20260830043115 | 73 | 170 | 0.0 | 0.0 | 0.00 | 0.00 | 0.00 | 73 | 1019.7 |
| 20260830042613 | 73 | 170 | 0.0 | 0.0 | 0.00 | 0.00 | 0.00 | 72 | 1019.7 |
| 20260830042112 | 73 | 170 | 0.0 | 0.0 | 0.00 | 0.00 | 0.00 | 72 | 1019.7 |
| 20260830040608 | 73 | 169 | 0.0 | 0.0 | 0.00 | 0.00 | 0.00 | 71 | 1019.7 |
| 20260830040104 | 73 | 169 | 0.0 | 0.0 | 0.00 | 0.00 | 0.00 | 71 | 1019.7 |
| 20260830035600 | 74 | 169 | 0.0 | 0.0 | 0.00 | 0.00 | 0.00 | 71 | 1019.6 |
| 20260830034601 | 74 | 157 | 0.0 | 0.0 | 0.00 | 0.00 | 0.00 | 70 | 1019.5 |
| 20260830034101 | 74 | 156 | 0.0 | 0.0 | 0.00 | 0.00 | 0.00 | 70 | 1019.5 |
| 20260830033600 | 74 | 102 | 0.0 | 0.0 | 0.00 | 0.00 | 0.00 | 70 | 1019.6 |
| 20260830033055 | 74 | 102 | 0.0 | 0.0 | 0.00 | 0.00 | 0.00 | 70 | 1019.6 |
| 20260830032552 | 74 | 102 | 0.0 | 1.0 | 0.00 | 0.00 | 0.00 | 70 | 1019.6 |
| 20260830032050 | 74 | 101 | 0.0 | 1.0 | 0.00 | 0.00 | 0.00 | 70 | 1019.6 |
| 20260830031549 | 74 | 103 | 0.0 | 0.0 | 0.00 | 0.00 | 0.00 | 70 | 1019.5 |
| 20260830031047 | 74 | 103 | 0.0 | 0.0 | 0.00 | 0.00 | 0.00 | 70 | 1019.5 |